Theta_e
314 306 301 301 301 303 305 306 305 306 306 305 304 303 302 301 302 304 309 329 329 324 320 321 321 323 326 327 330 332 333 333 333 331 330 331 332 332 331 331 332 333 333 335 337 337 337 337 338 340 341 342 343 343 342 342 345 347 348 349 347 349 350 350 348 349 348 347 346 345 346 346 350 349 351 355 357 359 361 363 363 363 363 363 362 361
313 303 302 304 305 306 306 306 307 305 306 304 303 301 301 302 300 304 305 327 328 322 318 321 320 322 325 327 329 331 330 328 329 329 329 330 332 332 331 331 332 332 334 334 334 336 337 336 337 339 339 342 339 340 340 340 345 346 349 348 348 348 349 349 349 349 349 348 347 344 344 345 348 350 351 352 356 358 362 363 363 364 364 364 361 361
303 301 304 307 309 308 308 307 306 305 304 304 301 301 299 300 302 304 306 326 327 323 317 320 318 320 325 327 328 329 329 329 331 331 330 331 331 332 332 332 332 332 332 331 333 336 336 336 336 337 338 339 340 339 339 341 344 347 348 348 348 348 349 349 349 349 348 348 348 346 345 346 348 351 354 355 358 360 361 362 363 364 365 364 361 360
298 300 305 309 309 307 307 307 306 305 304 302 300 297 297 301 299 294 301 324 325 317 316 319 316 317 323 327 327 330 329 330 332 332 332 333 332 332 333 333 333 332 332 330 332 334 335 335 335 335 336 337 338 338 338 341 343 347 348 347 347 347 349 348 349 351 349 350 349 347 347 347 349 347 354 356 358 359 359 360 362 363 364 365 362 362
300 305 309 308 307 306 305 306 305 302 299 301 301 300 299 300 300 299 299 308 321 321 321 320 314 313 318 319 324 328 331 331 332 332 332 333 334 334 335 335 335 333 332 332 331 334 334 334 333 334 335 337 336 337 337 340 344 347 347 347 347 347 349 348 351 350 349 352 347 347 347 348 348 349 348 351 354 356 358 359 360 361 363 365 364 364
303 308 309 306 305 305 304 302 303 302 298 298 300 301 302 302 301 301 302 303 307 310 316 317 306 306 314 318 322 326 328 328 331 329 329 331 332 333 332 333 335 336 335 334 331 333 334 334 333 334 335 336 335 336 338 341 344 347 347 347 348 348 349 349 350 350 350 349 345 343 341 338 339 340 343 347 351 352 354 356 360 361 362 364 364 364
304 309 307 304 304 304 303 302 304 303 297 295 296 301 302 302 302 301 299 298 291 295 308 320 308 302 311 315 320 323 325 326 329 329 330 331 331 333 333 333 334 334 334 335 334 333 334 334 333 333 334 335 335 336 339 341 343 347 347 347 348 348 349 350 351 350 351 347 345 344 342 340 339 339 340 347 353 354 355 356 358 359 361 362 363 364
305 305 305 304 303 303 302 300 303 303 297 294 299 302 301 300 300 300 300 297 293 302 316 318 313 304 305 312 321 324 323 324 325 327 329 331 331 332 334 334 334 335 335 335 335 333 334 335 333 333 334 335 335 336 338 340 343 345 346 347 348 349 351 350 351 350 349 346 344 343 341 341 339 340 339 344 351 354 355 353 357 358 359 360 361 362
300 298 301 300 301 298 298 303 305 304 299 296 302 305 303 302 301 300 298 295 294 295 295 311 314 306 304 313 319 323 320 321 323 326 328 330 331 332 334 334 335 335 335 336 335 333 334 334 334 335 334 336 336 336 338 339 342 345 346 348 348 348 350 351 351 350 348 348 344 343 341 339 340 340 340 344 350 352 354 351 354 356 357 358 360 359
301 301 299 299 298 295 300 303 305 305 300 303 305 305 304 304 303 302 298 296 298 292 289 305 310 299 298 309 314 321 320 319 322 325 328 330 331 332 333 334 335 336 336 337 337 335 335 335 336 336 336 336 336 337 339 339 343 345 346 347 348 348 349 351 351 350 348 347 346 341 341 339 338 340 341 341 345 347 348 349 351 353 354 355 356 358
298 306 305 303 299 300 302 303 303 303 305 304 304 302 302 300 300 300 297 295 292 289 288 295 302 301 289 303 313 315 318 322 324 325 328 330 332 333 334 334 335 336 336 336 337 336 336 337 337 336 336 336 336 336 338 338 342 344 345 346 347 348 349 350 351 350 347 345 345 342 342 339 338 339 340 339 342 342 343 347 349 350 353 354 354 357
298 299 298 300 307 305 305 303 305 305 304 304 301 300 295 295 295 294 292 292 290 283 290 296 297 297 288 292 314 321 324 325 325 323 325 328 331 332 333 334 335 336 336 337 337 337 336 336 336 336 336 336 335 336 336 338 341 344 344 346 346 348 349 349 350 349 347 345 344 343 342 339 340 340 340 339 341 340 341 345 347 349 351 352 352 356
293 294 298 299 307 302 301 300 300 302 300 303 299 296 291 286 289 285 287 288 285 285 291 296 296 295 291 296 315 320 323 324 326 326 326 329 331 332 333 334 335 336 336 336 336 337 337 335 335 335 335 336 335 335 335 338 339 343 344 345 345 346 348 348 349 348 347 345 343 343 342 340 342 341 340 339 340 340 340 343 346 347 349 351 350 353
290 296 298 297 300 303 301 294 293 295 296 296 297 293 291 286 286 282 283 285 285 290 294 295 297 291 293 297 308 319 323 325 325 326 327 331 332 333 333 334 335 335 336 336 337 337 337 336 336 336 336 336 336 336 336 338 339 343 343 344 344 345 347 348 348 348 347 345 344 342 343 341 344 343 340 339 340 341 340 342 346 348 349 350 350 352
283 286 292 296 292 300 299 296 296 295 296 297 297 297 292 289 287 283 284 283 283 286 290 297 292 288 290 294 302 318 324 325 326 326 328 331 334 335 335 334 335 335 335 336 336 337 337 337 337 337 336 337 337 336 337 338 338 342 343 343 344 345 346 348 347 346 346 345 344 342 342 342 342 344 341 339 341 341 341 342 345 348 350 351 351 351
289 288 294 299 299 299 297 300 300 298 296 297 300 299 294 292 294 290 287 287 289 288 289 291 291 292 293 301 305 316 322 323 325 325 327 330 333 334 333 332 333 334 335 336 336 337 338 338 338 338 337 338 338 337 338 337 340 340 343 343 344 345 346 347 348 345 345 346 345 343 341 342 342 346 344 341 343 341 342 341 344 347 350 351 351 352
288 285 295 298 299 298 298 300 299 300 290 295 297 294 294 298 298 294 297 297 296 292 287 293 295 296 298 300 303 303 315 320 323 323 325 328 332 332 331 332 333 334 334 335 336 336 337 338 338 338 338 338 339 338 338 339 341 340 342 343 343 345 347 347 348 346 345 345 345 344 342 341 342 342 343 342 341 341 341 342 343 346 348 351 352 352
286 287 294 295 294 299 301 300 299 302 300 297 292 294 300 302 300 293 286 288 288 284 286 294 291 290 291 290 300 301 307 317 320 321 324 327 330 330 331 332 332 333 334 336 336 337 338 339 339 339 339 339 339 340 339 341 342 342 343 344 343 344 346 347 348 347 345 344 344 344 343 341 342 342 343 344 343 343 341 341 341 345 345 349 352 354
292 284 290 295 296 298 300 299 299 301 302 297 294 302 296 289 291 291 291 285 284 285 285 290 293 293 293 293 298 299 300 304 316 320 322 325 328 329 330 331 332 333 334 334 335 336 338 338 339 339 339 340 340 342 341 342 343 344 344 345 345 344 346 348 350 349 348 345 344 344 344 342 341 343 342 343 344 345 342 341 341 341 346 347 350 353
293 285 286 295 295 296 297 295 287 293 299 301 301 298 300 296 295 292 292 290 289 284 288 285 291 289 296 294 298 301 302 302 314 318 320 325 328 329 330 331 331 332 332 333 335 336 338 339 339 339 340 340 340 341 342 343 344 345 346 346 345 346 346 347 349 350 348 347 345 344 345 344 342 343 343 342 342 344 344 343 343 342 343 347 350 350
291 292 282 289 296 295 288 292 290 292 291 293 293 292 297 297 299 296 296 293 289 285 284 285 285 290 299 308 311 313 314 309 311 318 321 325 328 330 331 331 331 332 332 333 335 336 338 339 339 340 341 342 342 343 343 343 344 345 347 347 347 346 346 346 348 350 349 348 346 345 344 344 343 342 343 342 342 342 345 345 346 344 343 346 348 350
289 289 285 289 289 288 289 296 296 296 295 293 292 291 295 294 292 288 287 296 295 291 284 288 285 292 304 318 315 317 318 319 311 319 322 325 328 329 331 331 332 332 332 333 335 337 338 340 340 340 341 342 342 343 343 343 345 346 347 348 348 347 347 347 347 349 350 349 347 345 345 344 344 343 343 342 342 342 342 346 347 347 346 345 347 350
295 293 289 285 287 289 292 296 299 299 297 296 296 294 297 295 295 290 283 288 292 293 297 292 288 293 307 312 318 319 320 322 318 318 322 325 327 329 331 332 332 333 333 333 335 338 339 340 341 341 341 341 342 343 343 344 344 346 347 349 349 348 348 349 348 349 350 349 348 346 346 345 345 344 343 342 342 342 342 343 347 350 348 347 347 350
302 287 283 285 288 292 294 297 299 300 299 295 295 297 295 291 293 293 292 294 291 293 289 288 290 292 305 307 317 320 322 324 325 317 323 326 328 329 330 331 332 332 333 334 336 338 339 340 341 341 340 341 342 342 343 344 345 346 348 349 350 349 349 350 350 350 350 350 349 347 346 345 345 345 344 343 342 342 342 342 344 350 350 349 349 348
286 289 285 280 280 283 286 290 293 296 295 292 291 294 295 295 295 295 297 296 292 295 293 289 285 292 301 307 317 320 322 323 325 327 326 325 328 329 330 331 332 332 332 333 335 337 339 339 340 340 341 341 342 343 344 344 345 346 347 350 350 351 351 351 352 350 350 350 349 348 346 345 345 345 344 344 343 342 343 343 342 345 349 350 349 349
289 289 283 278 276 275 275 277 280 284 287 290 293 293 294 293 292 291 288 290 284 292 293 290 289 296 302 305 313 318 320 322 324 327 329 325 325 328 329 331 331 332 332 333 335 337 338 339 340 341 341 342 343 344 344 344 345 346 347 350 352 352 352 352 353 352 351 351 350 348 347 346 345 345 345 345 344 343 343 343 343 343 346 349 349 349
291 292 287 283 280 280 282 285 290 293 289 286 289 291 291 293 293 293 293 290 287 290 290 292 295 295 298 302 312 315 318 319 320 323 327 329 331 334 335 335 335 335 335 334 337 339 339 339 339 340 341 342 343 344 345 345 345 346 347 349 352 353 353 353 353 352 351 351 350 349 348 347 346 346 345 346 345 345 344 344 344 343 344 347 348 348
290 285 288 289 287 287 288 288 290 292 288 289 289 289 291 291 292 291 288 287 294 290 285 294 297 295 297 309 314 315 317 318 319 320 323 328 332 334 335 338 341 337 337 338 339 340 339 339 341 340 341 342 343 345 346 346 346 347 347 348 351 354 355 355 354 353 352 352 351 350 350 349 348 346 346 347 347 346 345 345 345 345 345 347 347 348
288 285 289 290 288 290 290 290 291 291 290 290 290 290 290 291 291 289 290 292 294 290 288 294 297 297 303 311 314 316 318 317 317 320 321 324 327 330 331 331 331 332 334 335 335 337 340 341 340 341 341 342 343 343 345 346 347 348 348 349 350 353 354 356 355 354 354 353 352 351 352 351 350 349 348 348 347 346 346 345 346 346 347 347 348 349
289 284 291 291 288 289 289 290 291 290 290 290 290 290 291 291 291 292 292 293 293 292 295 297 298 303 309 312 315 317 318 320 321 321 319 319 321 324 326 327 328 330 331 332 333 335 336 339 342 344 341 342 342 343 343 344 346 346 347 348 350 352 355 356 355 355 354 353 353 353 353 353 352 351 349 348 347 347 347 346 347 347 348 348 349 349
289 288 293 290 286 286 289 292 291 290 290 288 290 291 291 291 292 293 293 293 295 295 298 298 300 302 311 314 315 318 319 319 318 317 317 318 318 321 322 323 325 326 328 330 331 333 335 336 336 339 341 344 342 343 343 344 345 347 348 348 349 350 353 356 356 356 355 354 355 355 354 354 353 352 350 349 348 348 347 347 348 348 349 349 350 350
292 286 291 288 282 283 288 289 290 291 290 288 288 289 290 290 289 292 291 294 293 294 296 299 302 302 310 314 316 314 315 314 314 315 316 316 317 318 318 320 323 324 325 326 329 330 331 334 333 334 336 338 338 343 343 344 345 346 346 347 348 350 352 353 356 356 356 356 356 356 355 354 354 352 352 351 349 348 348 348 348 348 348 350 350 351
290 289 286 285 281 282 287 290 289 289 287 284 285 288 291 292 296 299 299 300 303 303 300 299 303 309 311 316 312 311 312 313 313 316 316 317 316 317 316 317 319 321 324 325 326 327 328 331 333 334 336 336 337 338 342 347 346 346 347 348 349 350 350 350 352 355 357 357 357 356 356 355 353 353 352 351 351 350 349 348 348 348 348 349 351 352
292 291 287 288 281 281 287 288 289 283 277 279 289 294 293 291 294 299 302 306 308 308 306 310 310 311 312 312 312 310 310 312 315 317 320 318 317 316 316 317 317 319 321 323 324 324 325 329 331 334 335 337 339 340 340 345 347 348 349 350 350 350 350 349 350 352 355 357 358 357 357 356 354 353 352 352 352 351 350 349 348 348 349 351 352 352
292 290 286 289 283 280 285 286 282 275 279 291 294 296 300 301 301 300 303 305 306 307 307 307 308 307 308 311 315 313 312 313 317 318 318 320 318 317 317 317 317 318 320 321 322 324 324 327 330 332 335 337 339 340 342 342 343 345 348 349 349 349 350 350 350 351 354 356 358 358 358 356 355 353 353 352 352 351 350 350 349 349 350 351 351 352
288 287 289 287 285 284 281 281 271 276 288 293 293 298 303 302 299 300 300 304 305 306 306 305 306 307 308 308 309 315 315 312 314 317 319 319 319 316 317 317 317 318 319 321 323 324 324 325 328 331 333 338 338 339 341 341 343 343 344 347 348 348 349 350 350 351 354 356 357 358 358 357 355 354 354 353 352 351 351 350 350 349 350 351 352 354
292 290 288 283 287 279 280 279 281 287 287 289 292 297 298 294 295 294 291 299 305 307 307 305 305 306 307 307 308 310 313 314 309 311 317 317 317 319 318 318 319 318 319 320 322 324 326 327 327 330 333 334 336 337 337 340 342 342 342 344 348 348 348 349 349 350 353 356 358 359 359 358 357 355 354 354 352 351 351 351 351 351 352 351 352 352
293 288 288 284 284 285 279 278 279 275 276 283 295 299 300 301 302 301 297 297 305 306 310 308 304 305 305 306 307 308 311 308 303 305 314 318 319 318 319 317 319 319 320 320 322 323 324 327 328 330 331 332 335 336 338 339 341 341 341 343 349 351 349 349 350 351 353 355 358 359 359 359 358 356 355 354 353 352 352 353 353 352 353 351 351 351
296 293 290 286 285 283 282 278 277 272 278 292 294 297 298 302 303 302 295 293 304 304 308 309 306 304 306 305 305 307 306 302 301 304 310 316 315 317 317 318 318 319 320 320 321 322 324 325 328 329 330 330 332 333 336 339 341 342 342 343 347 353 355 354 352 352 352 355 358 360 360 360 359 357 356 355 354 354 353 353 353 353 353 353 352 352
290 289 288 285 284 285 282 279 277 283 279 292 296 297 299 301 302 296 283 287 302 304 307 309 308 306 305 306 306 305 302 300 302 305 311 313 319 318 317 317 318 319 318 320 321 323 324 327 326 325 328 328 329 332 334 336 336 337 340 345 346 350 354 356 357 357 356 355 358 360 360 360 359 358 357 356 355 355 355 355 354 354 353 353 353 353
285 287 286 283 283 287 287 281 282 285 296 297 296 298 300 302 299 287 281 293 301 304 308 309 310 310 307 306 306 302 305 306 308 310 313 313 316 316 318 319 318 319 318 319 321 323 322 324 324 325 326 328 329 331 332 333 333 335 337 340 343 347 353 358 361 360 359 357 357 359 360 360 360 359 358 358 357 356 356 356 355 354 353 353 353 353
283 286 288 285 282 281 282 280 281 285 294 296 298 299 302 296 283 281 296 302 303 304 307 308 307 311 310 307 307 306 307 309 311 311 311 313 313 314 315 315 317 318 320 321 322 321 321 322 322 324 325 327 328 329 331 332 332 334 337 340 343 347 352 357 359 360 360 357 357 359 359 360 360 360 360 359 358 356 356 356 356 355 354 354 353 352
283 283 278 280 284 285 283 280 279 277 290 298 298 297 300 288 289 297 299 301 305 306 306 307 308 309 312 308 309 308 308 308 308 309 310 313 313 313 313 314 314 314 315 318 318 320 321 320 321 322 324 326 328 329 330 331 332 334 336 337 340 344 347 351 355 357 358 358 356 358 359 360 360 359 361 359 359 357 355 356 356 356 355 354 352 351
290 282 280 282 288 280 279 278 279 287 292 298 296 289 294 297 300 301 302 300 303 304 304 304 306 308 309 308 309 308 308 307 308 309 309 311 315 314 313 314 315 315 315 317 319 319 321 320 321 322 324 326 327 328 329 330 330 331 332 332 335 337 342 347 352 355 356 357 356 357 359 360 360 360 360 360 359 357 356 355 356 356 355 354 353 351
290 287 287 282 288 285 282 284 291 294 295 296 297 296 297 299 300 300 299 299 299 301 304 303 303 306 307 308 308 309 308 308 308 308 308 309 313 314 313 313 314 315 314 315 317 319 319 319 320 321 323 325 325 325 327 329 329 329 329 331 334 336 338 341 344 348 352 356 357 356 359 360 360 360 360 360 359 357 356 356 356 355 355 355 353 352
294 296 295 291 289 294 295 296 297 295 294 295 297 298 298 298 299 299 298 297 299 300 301 300 302 304 305 307 307 307 308 309 308 308 308 309 312 314 316 315 315 315 314 315 315 317 318 318 320 321 323 323 323 323 325 327 328 327 328 331 333 334 336 337 340 344 351 356 357 356 358 359 360 360 361 360 360 359 358 357 356 355 355 354 354 353
294 295 292 286 290 286 282 293 293 293 294 295 296 298 298 299 298 299 298 298 299 300 301 302 302 303 304 306 307 307 307 309 309 309 308 308 310 313 315 315 314 314 313 314 315 318 316 316 318 321 322 322 321 321 323 325 326 327 328 330 331 333 334 336 339 344 352 356 357 356 357 358 359 360 361 361 361 360 360 358 358 356 355 355 354 353
287 295 289 289 288 285 286 291 293 296 296 296 296 295 295 297 298 299 300 300 301 302 303 303 304 303 305 304 306 306 307 308 308 308 308 308 308 309 313 314 315 315 315 315 316 318 316 315 317 320 321 319 319 320 322 324 324 326 327 328 330 332 334 335 338 341 347 352 356 355 356 358 357 358 360 361 361 360 360 359 359 357 355 355 355 353
291 296 285 288 285 288 292 293 294 295 295 296 298 297 297 297 298 299 299 300 300 301 303 304 305 304 304 304 306 306 307 308 309 309 308 308 308 308 310 314 316 315 314 315 315 318 315 316 317 320 322 319 318 320 321 322 324 325 325 326 328 331 332 334 336 340 346 352 356 355 354 357 358 359 360 361 361 361 361 360 359 358 358 360 359 357
292 287 289 288 285 284 285 288 292 287 288 293 295 296 297 299 299 298 299 299 301 301 302 302 304 306 306 306 306 306 305 306 308 309 309 309 309 308 310 312 314 314 314 315 316 316 316 317 318 321 320 318 318 320 321 321 323 324 325 325 327 330 331 333 335 340 348 353 355 356 354 356 358 359 360 361 360 360 348 325 320 346 361 359 346 340
288 288 288 285 284 284 289 292 294 295 294 295 296 297 299 299 299 298 299 300 301 302 303 303 303 304 305 306 307 306 306 307 307 309 309 310 310 310 310 311 313 314 314 315 314 316 315 315 319 321 318 317 319 319 320 320 322 323 324 325 327 329 330 331 335 342 347 350 352 352 355 356 357 358 359 361 361 360 351 344 332 306 305 324 341 332
Wind_Speed
3 5 5 6 6 5 5 6 5 5 9 10 7 6 7 8 9 3 3 12 19 14 15 17 11 13 17 13 13 14 7 12 13 14 13 13 13 13 15 16 15 18 16 15 17 17 15 17 17 16 15 15 15 15 14 14 14 13 12 12 12 10 9 9 8 7 8 6 6 4 6 6 5 6 5 6 6 6 6 7 7 6 6 5 5 4
4 5 7 8 8 6 6 5 6 7 9 10 7 6 9 9 10 6 3 15 17 16 10 6 10 14 17 15 11 9 9 13 14 16 18 18 15 14 16 17 15 15 11 15 15 17 16 16 17 17 15 15 16 15 15 15 15 14 13 13 11 10 10 10 9 9 8 7 7 6 7 5 4 6 7 6 5 6 6 7 7 6 5 6 5 4
3 7 8 9 8 7 8 7 6 9 10 10 7 7 7 10 6 8 4 12 15 13 6 13 14 13 17 18 12 12 13 14 15 17 19 20 17 14 15 16 15 14 14 15 17 18 16 18 19 16 15 16 18 17 16 15 15 15 13 12 11 10 11 9 9 7 8 6 6 6 5 6 3 4 7 7 6 6 6 6 6 6 6 6 6 6
3 5 11 11 9 9 8 9 8 7 8 8 7 5 9 7 3 4 3 15 10 5 6 13 7 5 10 15 17 13 13 12 14 15 14 16 18 17 17 16 16 16 16 17 17 20 18 18 18 17 16 16 15 16 15 15 17 14 13 12 12 11 10 9 9 8 6 8 7 6 6 5 5 5 6 7 6 5 5 5 5 4 5 5 5 5
8 9 11 8 8 8 9 8 8 7 7 7 8 8 10 9 6 4 0 4 2 9 12 9 6 3 6 12 13 16 17 14 13 14 12 13 15 16 14 14 16 17 17 17 17 19 18 18 19 18 17 17 16 16 16 15 15 12 15 14 14 12 11 9 10 9 6 6 6 5 4 3 3 4 4 5 5 6 6 5 4 5 4 4 4 4
8 13 7 7 7 7 8 7 8 6 7 6 8 11 11 11 9 4 2 3 5 3 10 12 4 5 5 8 13 13 16 15 13 15 15 15 14 13 15 16 15 15 16 17 17 19 18 18 17 17 18 19 17 17 17 16 16 15 14 14 14 12 10 11 10 9 8 8 9 8 7 6 4 7 7 8 9 7 7 8 7 5 5 5 4 4
7 9 5 9 10 10 8 9 9 6 7 6 7 6 11 11 9 6 4 4 4 7 12 10 12 6 2 6 11 12 14 13 10 14 14 14 14 14 15 15 16 17 17 16 14 15 18 18 18 18 18 19 18 17 16 16 16 16 15 14 14 13 11 11 10 10 8 7 8 10 10 8 8 9 6 6 7 7 7 6 7 6 5 6 6 5
3 8 10 8 7 10 9 8 9 8 6 6 7 7 5 4 3 4 5 6 4 2 10 7 5 4 3 7 8 11 12 12 12 14 15 15 15 16 16 17 17 18 18 18 18 17 19 19 20 20 20 18 18 17 16 16 15 17 17 16 15 12 12 11 11 10 9 9 9 9 8 8 8 10 8 8 8 8 6 6 8 6 6 6 6 6
2 4 1 2 1 2 7 9 11 8 6 5 8 10 10 9 5 4 3 5 4 5 2 6 6 5 4 9 10 11 11 14 16 17 18 17 17 17 16 17 17 19 19 19 18 18 19 20 20 18 18 18 18 17 17 17 16 16 16 16 14 14 12 12 13 12 10 9 9 10 9 7 6 8 7 7 7 8 7 8 6 7 7 6 6 6
3 1 5 5 2 4 4 7 12 8 6 7 10 9 7 5 3 1 0 1 0 4 5 11 7 4 4 4 7 10 13 15 17 20 20 20 19 18 17 15 16 16 17 18 20 17 19 19 19 19 18 18 17 17 17 16 15 15 15 16 16 15 13 12 13 13 12 10 9 9 9 10 8 7 6 7 8 7 7 8 7 7 7 7 6 6
4 4 6 1 3 3 3 4 6 6 11 3 4 6 8 5 2 0 3 2 3 3 6 7 7 7 5 5 12 11 16 21 18 13 13 14 15 16 16 17 15 15 16 16 17 17 17 17 18 17 19 18 17 15 17 16 16 16 16 17 18 17 14 14 14 14 14 12 10 10 10 11 11 9 8 8 9 7 6 8 8 7 7 6 7 6
7 3 1 2 3 3 3 4 5 1 3 5 1 1 4 7 4 3 2 3 2 3 3 6 7 9 7 2 8 17 21 24 20 20 20 20 21 19 17 16 16 16 16 17 17 17 16 15 18 17 18 18 18 16 17 16 16 17 17 17 18 16 15 14 14 14 14 13 11 10 10 11 12 11 9 11 12 11 11 10 9 8 6 6 6 6
4 3 3 5 2 13 7 4 7 5 5 1 0 3 2 3 3 4 2 3 3 3 3 3 3 0 5 8 13 19 21 17 15 16 20 23 23 21 19 20 18 17 17 17 17 16 16 16 18 19 18 18 18 18 19 18 17 17 17 19 19 17 16 16 15 16 15 13 12 11 11 10 10 11 11 11 12 10 10 9 9 8 8 7 6 7
6 2 9 7 5 9 9 10 9 9 8 4 0 2 1 0 0 2 3 1 3 7 6 4 4 3 3 7 8 19 22 19 14 13 13 18 21 21 20 18 17 17 17 17 18 18 17 16 18 20 19 19 18 19 19 18 17 16 16 18 20 19 17 16 16 16 15 15 14 11 11 10 9 11 11 10 11 9 9 9 10 10 10 9 10 9
2 2 4 8 3 7 6 5 0 4 8 8 3 3 6 4 3 3 2 2 5 7 6 1 2 3 5 4 7 16 19 19 16 16 15 17 19 20 17 14 14 14 15 16 17 18 18 17 19 19 19 18 19 20 20 18 18 17 17 18 20 19 17 16 17 15 16 15 14 12 10 10 8 10 10 10 9 9 8 8 10 9 9 9 9 9
2 4 4 4 2 5 11 9 4 8 6 3 2 4 4 4 3 1 5 2 1 2 5 2 2 4 5 3 4 10 12 14 15 14 14 15 15 11 10 14 15 16 17 17 17 18 19 18 18 19 18 18 18 21 20 20 19 18 19 20 20 21 19 18 17 16 16 15 14 13 11 11 10 9 9 8 7 7 8 8 9 10 10 10 9 8
4 3 3 9 5 9 11 12 8 4 5 7 4 1 6 7 3 0 3 2 2 1 7 3 6 5 6 7 7 5 8 12 14 14 14 16 15 15 16 16 17 17 17 17 18 18 19 17 18 19 20 18 19 20 21 21 20 21 19 19 20 20 19 19 19 18 17 16 14 14 13 11 10 10 11 11 11 10 8 8 8 9 10 8 8 8
1 8 5 8 12 6 12 10 3 5 2 1 4 8 10 2 3 3 3 2 1 3 5 1 3 6 4 6 8 2 12 16 16 15 17 17 16 17 18 17 18 19 20 20 20 19 20 19 20 20 20 21 21 22 22 22 20 20 19 20 21 19 20 19 19 18 16 16 15 15 15 13 13 13 12 12 12 10 9 7 7 6 7 8 9 9
1 6 2 6 6 9 14 8 7 10 11 7 4 8 9 3 1 3 1 1 3 1 1 3 3 4 3 8 6 10 6 11 18 17 14 15 17 19 18 19 19 19 17 16 17 17 18 18 19 20 21 22 21 22 21 20 20 18 18 19 21 21 20 20 17 16 15 16 13 13 15 15 14 12 12 11 11 10 10 10 9 8 9 8 7 8
4 1 6 4 11 10 5 6 4 11 20 14 11 13 5 4 0 0 3 2 4 2 0 5 1 4 4 3 6 13 11 7 15 17 15 19 21 20 18 18 19 18 18 18 18 18 18 19 20 21 21 21 21 20 19 20 19 21 20 19 19 19 18 18 17 16 16 16 14 13 13 13 13 13 12 12 11 11 12 12 11 11 9 10 8 9
2 3 5 6 9 7 5 4 5 8 10 12 13 10 10 4 5 4 3 2 2 2 3 2 2 2 6 10 12 14 13 12 7 16 16 18 21 22 21 20 19 19 19 19 19 18 19 18 19 20 19 19 19 18 18 18 20 19 18 18 19 20 19 19 19 17 16 14 15 15 15 14 13 13 12 12 12 13 13 11 11 11 11 8 9 9
3 4 4 8 10 5 2 6 6 7 3 5 1 4 7 9 11 7 7 5 1 2 3 3 7 4 4 6 8 11 17 16 8 15 16 18 19 19 18 20 20 19 20 20 20 19 19 18 18 18 17 16 17 17 19 18 17 18 18 18 19 19 18 19 18 17 16 15 15 16 16 16 14 14 12 13 13 13 12 12 12 11 10 10 11 10
0 1 3 6 3 10 12 8 10 8 5 2 6 6 8 5 2 2 3 6 6 4 2 4 1 1 5 11 13 15 16 19 12 17 18 17 19 20 20 20 20 21 21 20 20 18 18 18 18 18 18 18 19 19 19 18 18 18 18 18 17 18 19 19 18 17 15 15 16 17 16 15 14 13 14 14 13 14 13 12 12 11 11 11 10 10
6 3 6 8 7 8 7 3 6 11 7 5 8 8 10 10 11 8 6 4 3 8 6 5 4 2 11 13 14 16 16 17 19 12 21 18 17 20 21 20 20 19 19 19 18 17 16 16 16 15 16 17 17 17 18 18 18 17 17 18 17 20 20 18 16 16 15 15 16 17 16 15 14 15 15 15 14 15 14 13 12 11 12 12 10 11
2 1 3 4 7 10 6 7 8 6 10 5 6 8 9 10 10 10 4 3 1 2 2 1 3 5 13 13 12 17 19 22 21 17 5 3 14 15 15 15 15 15 15 15 15 15 14 14 16 17 17 16 17 17 17 17 17 18 18 17 18 18 18 17 16 16 16 16 17 16 16 16 15 15 16 16 14 15 15 14 13 11 12 12 11 11
4 0 3 2 2 4 7 6 6 10 10 9 3 11 10 10 13 11 6 5 3 2 3 1 2 8 12 11 14 18 21 21 22 20 10 10 7 1 3 7 8 8 9 13 13 13 15 17 16 14 15 14 15 16 16 16 17 17 17 18 17 17 17 17 15 16 16 16 16 16 17 17 16 16 17 17 15 15 14 13 13 13 12 12 13 12
1 1 2 3 3 4 7 6 5 6 6 6 12 9 11 11 8 5 3 2 1 5 6 4 2 10 15 18 16 21 20 21 23 23 19 17 15 16 17 16 14 12 9 4 1 4 8 9 14 15 15 15 14 14 14 15 16 16 15 17 16 16 16 16 16 16 16 16 17 16 17 17 17 16 15 15 15 14 13 13 13 13 13 12 13 13
2 1 3 1 3 6 7 9 9 8 10 9 8 9 11 11 8 7 4 6 3 6 8 4 2 8 10 11 13 15 17 19 22 20 20 16 13 14 15 17 19 17 14 14 13 11 5 1 6 8 11 13 13 13 12 13 14 14 14 15 15 14 15 14 15 16 16 15 16 16 16 16 15 15 15 14 14 14 14 13 13 13 12 12 13 13
2 0 1 1 2 4 5 6 8 7 7 7 8 8 11 11 10 9 8 8 3 2 8 10 6 5 6 7 10 12 12 14 17 20 20 16 14 16 18 18 18 16 16 15 14 14 13 9 2 3 5 7 8 9 9 9 9 9 9 10 12 13 15 14 14 15 16 16 16 16 15 14 13 13 13 14 14 14 14 14 13 13 12 12 13 12
1 1 2 3 4 4 5 7 8 10 9 9 8 7 8 9 10 10 11 11 6 5 10 12 6 2 2 8 8 8 11 10 10 14 19 21 20 16 17 18 16 15 15 14 14 13 12 14 13 8 1 3 5 4 4 4 5 6 8 9 10 11 12 13 14 15 15 16 16 14 14 14 13 13 13 14 15 15 14 14 13 13 13 14 14 13
3 1 7 2 3 4 5 7 8 9 9 10 10 9 8 10 11 11 11 12 11 6 4 7 3 1 2 2 3 6 9 9 14 18 18 18 20 19 17 16 15 15 15 15 13 13 12 12 13 14 14 12 4 5 8 9 10 10 11 11 12 12 11 13 14 15 16 16 15 14 14 13 14 13 14 14 14 14 14 14 13 13 13 13 13 14
1 2 2 2 4 5 4 8 11 13 12 10 7 7 6 9 8 7 7 5 7 3 4 6 3 4 6 7 3 6 10 12 13 14 15 15 16 17 18 16 15 14 14 14 13 14 14 12 13 12 11 10 13 13 4 6 7 8 11 11 12 13 14 14 15 16 16 16 14 14 15 14 14 15 15 14 15 14 14 13 13 13 13 13 14 13
1 1 1 1 3 3 3 6 9 11 10 9 3 2 8 10 7 8 7 5 3 3 3 0 2 2 3 5 3 6 9 11 11 10 12 13 14 16 16 16 14 13 14 13 14 14 13 11 9 9 9 9 10 10 12 9 5 12 12 11 11 10 12 13 14 14 15 15 16 16 15 15 15 15 15 15 15 13 13 13 14 14 14 14 13 12
1 1 1 0 0 2 5 7 5 5 3 7 5 6 10 11 10 10 5 5 9 3 2 2 1 3 2 2 4 4 7 8 7 9 9 8 10 14 15 15 15 13 12 12 13 13 12 11 10 10 7 6 7 7 9 10 9 8 6 10 9 12 13 13 14 14 14 14 15 15 15 15 16 16 16 14 14 14 14 14 15 14 13 12 12 13
1 1 1 1 0 3 2 6 6 3 8 3 6 8 11 11 8 8 9 9 10 13 12 6 5 7 7 5 0 4 7 6 9 9 10 9 9 9 13 14 16 17 16 14 12 12 13 13 14 13 12 11 8 7 9 11 13 13 10 6 10 11 12 12 12 12 13 15 15 14 15 16 16 16 15 15 14 14 14 14 14 14 13 13 13 13
3 3 1 0 1 1 3 1 0 8 4 9 11 6 12 7 9 7 5 6 11 12 12 10 9 10 9 8 7 1 5 9 9 11 9 9 11 9 10 10 12 13 13 12 13 13 13 13 12 12 13 11 8 7 7 9 9 10 13 13 12 6 8 11 13 14 11 11 14 15 15 15 15 15 14 15 14 15 15 14 14 14 13 12 12 12
5 2 2 2 1 2 2 4 8 6 12 8 3 5 8 5 8 7 6 3 7 9 12 11 10 12 12 10 10 10 2 7 7 9 9 11 12 9 9 10 11 12 12 12 13 12 10 9 11 11 10 10 11 11 11 9 8 8 9 14 13 9 7 7 10 11 12 12 13 14 14 15 15 15 15 14 15 15 15 14 14 13 12 13 13 12
5 4 3 3 2 3 2 4 4 2 4 2 2 6 6 7 6 8 3 4 5 10 11 11 9 12 13 14 15 13 4 4 9 7 7 8 7 7 7 8 9 10 11 12 11 12 13 12 11 10 9 10 9 11 9 9 10 7 8 11 15 10 8 10 11 10 11 11 12 14 14 14 15 15 15 14 16 15 14 14 13 13 12 13 13 14
2 2 6 7 2 2 1 3 3 3 5 2 6 8 11 6 6 10 4 3 4 10 12 12 11 9 10 11 13 12 8 6 4 5 4 5 6 5 7 6 7 8 9 11 12 12 12 12 12 11 12 12 13 12 10 9 9 8 6 8 14 13 7 5 7 11 13 12 11 12 14 14 15 15 15 16 16 14 15 14 14 12 12 13 13 13
4 2 3 2 2 3 3 4 5 3 4 2 6 9 11 10 7 1 5 2 6 11 12 11 10 9 9 10 9 8 8 6 6 5 5 3 3 4 4 7 8 10 10 11 10 9 8 8 7 11 12 14 13 12 13 13 12 11 8 8 12 13 8 5 6 6 6 9 12 12 13 13 15 15 16 16 14 13 14 12 12 13 13 13 12 12
2 1 2 6 3 5 7 4 2 4 1 3 8 10 10 10 2 4 5 3 9 9 8 8 8 8 7 8 7 6 6 4 7 6 3 4 2 5 4 4 6 7 8 9 10 10 8 8 8 9 9 8 10 11 11 11 12 11 10 11 11 10 9 9 8 7 7 6 8 11 14 13 15 16 16 15 14 14 13 12 13 13 13 13 12 12
1 1 1 1 2 5 4 4 6 3 0 3 6 7 6 4 2 3 2 4 7 10 7 7 9 7 6 5 5 5 7 9 9 8 7 5 3 3 4 6 6 7 7 5 7 9 9 9 10 11 11 9 10 10 9 9 9 10 10 10 11 11 12 12 10 10 10 9 7 10 12 14 14 15 14 14 13 12 13 12 13 13 13 12 12 13
2 1 2 1 1 1 0 1 3 5 0 9 9 4 5 3 2 4 7 7 4 8 8 7 8 7 4 6 5 6 10 11 10 9 10 6 4 6 7 8 9 9 10 9 9 9 9 8 9 9 10 10 10 8 7 7 8 8 10 11 13 14 15 14 12 11 11 10 8 9 12 13 14 13 11 11 13 14 14 12 12 13 12 12 12 13
1 1 1 2 2 2 1 3 4 2 1 4 5 1 3 3 4 5 6 8 5 6 7 8 7 7 6 7 7 6 7 10 10 9 11 9 4 5 6 5 5 8 8 7 8 10 10 8 6 7 8 8 8 9 10 9 10 10 10 11 12 13 13 14 12 11 11 10 9 9 10 12 14 14 13 14 13 13 13 12 12 12 11 12 12 12
3 3 3 2 2 2 4 4 3 2 1 2 1 3 6 4 3 4 5 6 7 7 8 9 10 11 12 10 8 6 7 7 9 8 8 10 7 5 6 5 5 6 8 10 10 10 9 10 10 9 7 7 9 10 10 10 11 12 12 11 11 12 13 14 14 13 13 12 10 9 10 11 12 13 13 13 13 13 13 13 12 11 11 11 12 12
1 2 1 1 4 3 7 10 7 4 5 7 5 4 3 5 5 5 6 7 6 6 7 9 12 14 14 13 10 6 6 8 9 9 8 9 8 7 5 4 5 4 6 8 11 11 10 10 9 10 11 10 10 10 10 10 10 11 11 11 11 12 12 13 13 13 13 13 10 9 10 11 12 13 14 13 13 14 13 14 13 12 11 12 12 13
2 2 2 2 1 3 4 1 2 5 6 6 9 5 3 5 8 6 7 7 8 8 9 9 10 13 13 14 13 10 9 8 8 8 6 5 7 8 6 5 4 3 4 6 6 9 10 9 10 10 11 11 10 9 10 10 10 10 10 11 11 11 11 12 12 13 12 12 11 9 9 12 11 11 12 12 11 12 12 12 12 13 13 13 13 13
2 2 0 3 1 2 7 6 8 7 8 9 5 3 9 11 10 10 9 8 9 9 9 10 10 12 12 12 12 11 10 8 8 7 6 5 5 5 7 5 6 5 3 3 5 7 8 10 10 10 10 10 10 9 9 9 10 11 12 11 11 11 11 11 11 11 12 13 12 9 9 11 14 14 11 12 12 12 11 11 13 13 13 14 13 12
3 4 3 2 2 6 6 9 6 10 10 4 1 4 6 8 10 12 12 12 12 11 10 9 8 10 11 13 12 12 10 7 7 6 6 5 4 4 5 7 6 5 5 4 5 6 8 9 11 11 10 10 9 9 9 9 9 11 13 13 12 13 12 10 13 12 13 11 11 9 8 10 10 11 12 12 13 13 14 15 15 14 13 14 12 14
2 4 1 1 3 5 5 5 2 6 7 5 8 9 10 10 10 12 12 12 10 10 10 12 12 11 12 12 12 12 13 11 7 4 6 6 4 3 4 7 7 6 4 3 4 5 7 7 9 11 11 10 9 10 10 10 10 11 12 13 12 13 12 12 11 11 10 9 9 9 7 8 9 11 12 12 12 12 3 9 3 7 13 12 16 19
6 6 5 5 5 6 6 4 2 6 9 10 10 9 9 10 10 12 13 13 13 11 11 11 12 12 13 13 10 11 11 10 8 5 4 4 4 3 4 5 7 6 5 3 5 6 7 7 8 8 11 11 10 10 11 11 11 12 14 14 13 13 12 12 10 9 9 9 9 10 8 8 9 10 11 11 12 10 9 7 2 7 2 6 12 17
Wind_Direction
142 191 207 215 225 228 247 223 200 240 274 286 302 307 289 290 282 259 220 186 184 176 198 187 182 166 166 171 186 189 167 165 159 168 180 207 187 175 177 179 172 179 183 177 178 175 169 167 162 164 166 167 166 168 164 165 167 170 172 168 171 176 178 171 167 167 161 164 173 178 176 179 175 170 170 166 168 169 170 169 171 174 175 173 172 169
151 191 228 227 228 217 230 235 229 247 260 262 272 283 286 271 275 280 277 202 184 178 207 184 173 169 168 173 179 176 156 194 180 180 184 196 185 179 176 180 177 177 173 172 176 176 171 168 164 164 167 166 165 171 167 167 168 169 170 171 168 172 178 180 174 170 165 171 178 173 178 173 160 166 164 169 174 174 172 168 168 171 171 167 167 165
181 199 228 231 228 233 238 234 228 232 244 257 238 258 271 268 268 289 252 188 189 196 205 187 175 172 165 174 180 180 191 194 194 191 184 179 178 179 177 179 177 171 175 174 174 175 174 169 166 166 168 168 168 169 170 168 165 167 170 171 167 174 175 182 176 164 169 170 175 169 174 165 159 182 163 166 171 170 169 176 171 167 167 167 167 163
207 263 238 222 216 221 234 236 231 229 238 244 261 258 249 259 277 318 300 194 144 14 269 197 161 142 157 171 183 192 185 199 197 198 185 174 176 179 180 177 177 175 176 175 172 176 175 171 169 167 168 169 168 168 169 168 167 168 170 170 168 173 176 178 181 173 171 170 173 162 164 163 161 169 159 154 158 166 162 177 179 173 166 171 168 166
203 231 227 223 222 218 230 233 233 234 243 242 234 233 249 264 243 178 225 101 7 23 18 23 31 347 180 172 182 192 196 198 198 187 182 185 180 179 177 176 178 178 179 175 171 177 175 172 173 171 168 166 170 170 171 170 170 172 171 171 169 171 177 179 179 173 163 152 155 150 142 122 110 100 118 132 158 170 175 167 181 192 176 173 169 169
229 239 213 206 225 235 238 248 242 209 241 259 237 224 240 246 260 236 179 91 62 327 244 171 46 286 252 208 191 177 185 196 189 183 184 185 184 175 177 181 181 181 181 179 174 178 176 172 171 170 167 170 171 172 173 172 172 168 170 169 169 170 175 177 180 172 164 165 163 159 159 167 165 158 159 169 173 176 175 184 187 183 186 177 171 172
223 244 216 191 204 220 227 236 240 192 229 239 253 222 231 240 248 251 225 151 150 193 207 190 167 232 224 206 198 189 191 188 181 192 188 184 184 179 182 180 181 180 182 183 175 174 176 174 171 172 172 172 173 173 171 171 171 168 168 170 170 172 174 176 177 174 168 166 171 176 176 175 174 169 188 175 172 171 185 176 178 184 188 182 175 177
208 226 227 226 199 208 214 238 246 202 197 240 251 248 255 281 258 244 233 181 229 233 145 142 121 124 189 233 208 190 188 187 188 195 192 192 188 185 184 180 180 181 181 181 181 175 178 175 174 174 175 174 174 167 169 171 170 169 170 170 172 173 175 177 173 178 175 171 179 182 183 178 178 180 171 179 176 176 173 174 182 177 188 187 184 177
327 299 21 26 11 178 213 216 233 210 186 219 257 258 259 252 259 269 226 227 199 121 195 184 124 108 219 223 196 178 189 199 202 198 197 194 192 190 188 183 181 181 181 181 183 177 177 177 177 173 176 176 169 166 171 172 172 170 169 169 171 173 175 177 175 177 181 179 183 182 181 182 191 183 162 173 171 173 176 177 177 180 187 189 193 182
272 59 312 290 238 264 218 222 226 207 227 251 244 260 259 274 257 149 166 188 21 114 206 205 179 166 247 226 169 187 199 205 208 203 199 195 192 191 188 188 184 181 182 183 184 179 178 178 179 174 171 172 174 170 171 171 167 169 168 170 172 175 177 177 177 180 182 185 181 182 185 184 187 184 153 165 173 178 176 178 180 185 184 189 193 193
240 252 239 229 245 214 259 251 202 192 219 225 255 267 283 310 329 359 100 112 85 182 236 208 193 184 255 219 173 171 204 207 204 203 199 197 197 195 193 188 185 183 184 184 184 180 177 176 177 171 172 174 173 170 170 169 170 170 171 173 176 178 176 177 178 180 187 189 184 186 186 186 187 182 163 166 176 176 175 180 187 183 192 189 192 193
329 352 29 262 239 319 278 334 325 232 210 212 100 298 3 330 359 29 335 47 234 272 261 197 186 188 217 287 202 202 210 206 193 193 187 189 195 193 191 192 190 185 183 183 183 181 176 171 177 175 173 174 173 171 172 171 171 173 174 174 176 176 177 179 179 182 189 191 191 189 186 188 189 181 173 175 178 179 181 184 187 189 183 195 193 195
339 339 272 277 54 40 334 3 318 337 14 45 87 42 82 271 10 302 12 305 217 205 239 188 111 255 237 210 195 211 218 216 207 202 189 188 192 192 192 191 188 186 182 182 182 178 179 176 176 179 175 172 173 175 175 173 173 175 176 175 174 180 180 180 180 183 188 193 195 190 188 190 188 184 181 179 180 179 180 184 183 178 188 188 186 198
290 308 15 337 53 6 37 43 350 350 344 20 260 127 78 59 293 248 280 213 301 295 245 212 164 208 242 271 211 209 217 212 202 211 206 193 190 191 193 191 189 185 184 184 181 181 180 180 179 180 177 175 176 176 176 174 174 176 178 178 178 181 181 180 182 184 186 195 198 192 188 187 185 187 185 185 183 181 177 180 183 184 186 188 193 190
49 357 331 23 2 318 45 70 225 230 299 282 173 149 178 150 162 218 201 199 221 221 284 352 89 241 145 249 215 205 214 211 204 202 199 198 195 196 190 185 185 185 188 186 185 186 183 181 179 181 179 177 177 177 177 176 176 176 178 180 182 180 182 182 184 185 188 192 198 196 191 187 186 186 188 189 186 182 173 181 182 188 185 189 194 192
305 245 247 13 233 6 12 347 345 338 321 292 206 92 91 227 148 190 205 143 255 344 335 345 185 189 187 240 236 211 207 212 207 203 191 194 195 180 169 183 189 191 190 189 190 190 188 182 180 181 181 178 178 179 179 179 177 179 180 182 183 181 181 183 184 188 189 192 194 196 192 192 190 190 188 189 190 188 183 178 183 186 189 193 191 194
359 291 314 324 127 53 6 345 346 359 9 300 7 245 220 192 150 260 318 251 172 336 262 235 317 292 295 311 260 181 214 213 212 200 193 193 184 176 183 189 192 191 189 190 191 191 190 186 182 182 182 179 179 181 183 182 180 180 179 182 184 183 182 184 186 188 190 191 192 197 197 190 191 190 188 192 194 192 192 182 185 184 193 189 188 188
88 274 334 27 343 31 357 320 260 95 327 322 336 304 288 279 129 123 207 315 102 163 257 289 228 301 21 289 298 193 177 213 215 207 193 189 175 180 189 190 191 190 192 193 192 190 190 188 184 183 184 183 181 183 183 183 181 181 181 182 183 183 185 187 186 188 190 190 194 197 198 197 194 194 195 194 195 195 188 192 189 184 178 192 190 188
59 327 336 31 6 344 345 339 7 347 37 100 258 277 8 341 309 322 98 275 288 255 261 290 276 280 184 262 312 298 255 193 213 211 196 183 179 189 190 193 193 191 189 191 192 192 193 190 187 186 186 186 183 182 183 182 181 183 185 184 184 185 187 186 187 188 190 191 194 196 199 199 198 197 196 196 194 193 196 198 194 193 194 190 188 187
18 346 303 341 28 326 356 24 29 336 337 6 8 8 343 272 210 103 188 193 123 253 54 290 2 243 246 242 270 270 273 251 193 211 195 183 186 189 191 191 189 189 190 191 192 194 193 190 187 187 186 186 184 182 183 182 183 185 185 184 187 187 185 185 187 188 190 193 194 198 201 203 203 200 198 195 189 193 199 201 198 200 197 195 189 191
28 49 297 299 342 4 11 21 53 1 347 342 359 357 359 357 274 238 253 171 188 198 179 190 310 281 6 327 340 331 326 301 217 209 199 191 192 190 190 187 188 190 190 189 190 191 192 191 189 188 186 186 185 183 181 182 185 186 183 185 186 186 187 188 189 187 191 191 196 196 198 201 202 205 204 201 197 198 200 199 198 200 202 192 197 194
27 11 311 323 344 346 160 60 356 313 290 293 360 6 340 350 1 8 305 324 28 152 221 207 242 249 16 341 342 322 323 316 254 216 210 197 193 194 192 189 186 187 191 190 191 189 189 190 189 187 185 183 182 182 184 185 184 184 186 186 187 188 188 189 190 190 190 190 194 197 199 201 201 203 203 203 203 203 201 199 199 199 197 197 201 194
57 192 11 322 274 289 298 301 277 262 244 208 97 7 347 332 323 38 348 306 337 299 265 193 212 263 356 1 354 345 333 328 299 206 207 200 195 193 191 190 190 188 187 190 189 187 186 188 187 185 183 183 184 185 185 184 185 186 186 185 187 188 191 191 190 190 188 190 194 198 200 199 201 201 203 206 206 208 204 203 202 197 197 201 200 199
349 66 351 306 296 287 311 263 122 41 23 38 14 6 4 354 341 329 275 259 280 320 35 349 248 271 349 354 349 341 344 346 344 221 198 193 196 192 191 190 190 191 192 189 187 184 182 183 183 182 182 184 185 186 186 186 186 185 185 186 187 191 191 190 190 190 190 193 196 197 198 199 201 200 203 207 209 209 207 204 203 199 201 202 200 199
38 343 78 335 337 326 15 0 355 5 48 64 328 335 338 321 327 318 301 356 161 127 29 217 249 6 317 336 341 348 357 4 353 355 14 221 198 194 191 189 190 191 185 183 184 183 179 178 182 186 186 185 185 187 187 186 187 187 186 186 188 190 189 189 188 189 192 194 197 198 198 200 200 201 204 208 210 212 209 207 204 202 203 202 205 204
110 157 81 77 29 348 329 356 336 328 334 324 311 321 324 333 336 345 13 329 41 295 64 320 282 282 307 325 353 355 3 2 360 355 17 72 52 56 184 181 173 179 183 185 184 180 182 185 184 184 187 188 187 188 188 189 189 188 187 188 187 188 187 188 187 190 190 193 197 198 200 201 200 202 204 206 210 212 211 210 207 204 205 204 206 206
26 20 109 145 149 194 227 242 229 252 294 300 312 313 317 330 327 338 299 355 270 298 329 248 151 316 334 346 1 356 360 359 2 2 22 39 48 65 74 65 56 45 31 27 242 205 186 182 187 188 187 187 187 188 189 191 191 189 188 187 187 186 185 186 187 190 191 193 196 198 202 201 202 202 204 205 208 210 210 212 211 208 207 205 207 206
58 25 279 175 201 227 238 250 263 273 275 284 301 315 315 312 318 322 333 284 278 346 311 259 360 352 335 3 4 350 353 0 355 359 12 18 37 62 65 67 65 58 48 45 40 39 33 253 199 195 190 189 190 188 189 192 192 191 187 187 186 182 184 186 188 189 191 193 197 200 201 203 201 202 203 205 206 208 209 210 211 211 210 206 208 210
135 257 258 21 294 287 283 305 314 311 294 286 286 296 300 299 305 303 290 282 308 257 258 292 327 4 340 6 6 360 6 17 353 348 4 2 20 42 56 57 57 55 51 46 38 34 33 30 23 178 190 201 195 191 189 186 189 187 183 185 184 183 186 183 185 189 192 194 198 200 200 199 201 202 203 204 206 208 209 209 210 210 209 208 210 211
77 220 280 6 328 331 328 328 319 318 322 324 306 285 276 289 293 292 288 290 277 251 260 273 310 51 24 4 11 23 30 24 11 359 356 5 10 24 45 50 49 49 49 44 37 33 30 32 35 26 35 170 169 164 151 144 161 164 173 179 183 183 182 179 187 190 193 197 199 198 196 196 198 200 202 204 206 208 209 210 209 209 209 209 210 210
91 302 345 327 9 322 330 328 325 323 327 323 323 314 307 295 287 279 280 280 287 279 290 300 340 214 38 317 353 30 46 30 28 27 9 357 360 11 29 39 39 41 41 39 33 30 30 33 32 34 36 18 343 177 164 181 180 181 179 177 179 181 180 180 185 191 194 198 197 195 194 194 198 198 201 204 206 207 208 209 210 210 211 210 209 210
90 259 27 32 28 319 337 349 334 339 331 325 320 298 300 307 301 310 294 294 286 298 325 334 50 332 308 330 332 48 61 49 43 35 29 7 352 2 15 23 30 32 32 30 28 25 24 24 27 27 28 22 20 356 304 197 188 192 192 189 187 186 184 186 187 190 194 196 194 194 194 195 195 197 201 201 205 206 206 207 209 211 211 211 209 209
177 141 4 17 7 267 310 346 342 339 346 333 301 262 4 332 312 285 292 330 337 150 53 159 94 292 279 310 1 38 49 65 57 39 42 16 358 5 7 8 12 21 24 23 23 21 16 17 14 19 22 31 16 358 352 327 247 197 195 195 194 189 194 200 198 195 194 194 193 193 193 194 195 198 200 201 202 203 203 205 209 211 211 212 210 207
145 130 261 125 82 263 335 346 354 20 349 250 232 8 338 315 315 339 9 22 333 4 186 179 300 303 300 324 37 44 53 51 65 67 58 51 11 3 4 3 360 5 16 19 20 13 9 9 10 6 8 19 13 20 343 347 349 300 234 193 189 187 195 196 202 204 204 199 197 194 192 192 194 197 199 198 198 199 201 204 208 210 212 212 209 209
163 102 211 155 105 293 340 13 11 321 246 245 333 340 5 345 22 356 342 16 350 360 3 359 352 348 345 326 7 135 109 88 69 66 61 51 48 29 2 359 1 1 2 2 6 9 7 7 3 356 354 354 358 9 7 357 1 357 323 275 203 199 197 201 205 211 207 203 201 196 195 194 195 196 195 195 195 197 201 203 206 208 209 209 210 209
182 189 172 4 150 18 39 68 318 238 245 320 315 10 3 3 7 345 253 355 359 358 355 354 355 341 339 339 340 245 173 116 87 65 59 57 52 39 18 2 358 2 3 354 352 360 7 4 4 354 332 327 340 10 32 357 352 6 330 299 290 259 220 207 202 205 208 213 207 201 196 195 195 195 193 193 194 197 200 202 203 205 205 209 212 211
172 108 115 270 136 198 194 173 232 322 319 322 3 23 360 343 322 336 316 316 341 343 349 344 343 345 343 344 339 337 305 176 64 59 42 46 39 35 23 7 356 2 360 360 358 352 350 351 2 345 331 335 344 10 10 350 347 353 334 312 267 240 226 230 229 220 211 206 203 203 198 196 195 194 194 192 194 197 199 200 202 205 203 209 211 210
147 165 212 142 249 153 211 291 330 358 271 326 308 302 322 325 298 279 258 259 350 347 344 344 347 348 346 345 348 337 323 73 20 24 44 49 45 24 19 7 4 7 3 357 358 351 348 356 354 343 338 333 353 12 358 337 323 332 340 316 288 265 231 223 230 232 227 217 204 200 197 196 194 195 194 194 197 197 198 199 201 203 200 206 209 212
8 132 145 154 197 63 153 197 217 223 238 147 318 332 328 313 303 303 312 236 359 336 337 336 340 348 351 347 342 341 28 54 356 344 12 55 37 38 11 2 7 9 6 358 359 355 348 349 345 343 339 341 358 356 341 327 322 332 340 314 297 291 283 258 240 227 226 224 212 201 196 195 195 195 195 197 199 195 196 197 199 199 200 206 210 213
33 84 80 80 195 192 189 226 246 216 245 298 328 335 325 310 313 20 307 231 330 339 320 327 330 340 344 341 347 350 23 15 354 330 334 23 59 17 32 1 360 7 12 1 355 350 341 336 345 351 350 347 347 344 341 336 334 330 319 293 274 279 288 284 278 276 255 222 207 202 199 198 196 196 196 199 197 196 197 195 196 199 201 204 207 211
343 348 124 203 203 226 223 254 285 295 293 16 333 317 313 305 297 276 238 314 311 300 299 305 315 318 337 343 357 348 329 328 314 314 330 335 34 20 18 19 15 6 4 358 347 345 347 354 357 350 346 337 335 341 341 332 326 317 306 293 291 300 308 307 302 296 293 263 218 205 203 201 198 197 199 197 195 194 193 194 197 196 199 202 205 209
344 37 282 87 203 215 213 218 232 250 200 315 305 312 308 354 357 219 321 284 277 295 302 306 308 306 325 342 331 318 308 319 323 332 341 342 4 9 6 8 4 8 11 353 341 348 351 358 353 347 344 338 344 343 334 322 307 300 300 304 309 315 313 313 315 314 308 292 242 212 204 205 203 200 198 196 190 191 197 198 195 196 198 199 201 206
213 134 247 201 245 44 45 266 321 281 352 9 338 334 32 79 232 332 309 284 263 282 297 303 295 285 299 312 307 307 317 321 325 328 332 336 347 7 6 3 360 5 354 348 346 354 360 355 355 347 336 337 339 336 322 314 312 314 320 323 324 324 321 318 316 313 307 296 265 224 208 202 201 200 199 194 191 192 196 192 193 195 195 197 200 204
198 93 267 288 174 197 195 187 213 180 28 340 36 310 307 279 275 318 315 303 304 297 308 314 303 292 292 291 296 307 307 312 314 326 326 327 339 350 5 357 351 350 351 343 341 343 351 351 354 348 335 334 335 338 334 333 333 331 330 325 324 317 315 316 317 313 307 297 272 233 216 205 200 199 199 194 189 191 192 191 193 193 193 195 197 201
225 172 184 188 251 175 210 226 260 117 146 302 342 277 277 300 8 338 338 320 320 321 327 315 310 312 309 293 280 284 300 294 300 308 316 314 322 339 346 348 339 342 341 343 345 346 351 349 343 344 340 336 340 340 336 334 336 334 333 329 324 323 322 321 321 317 310 303 282 241 220 207 201 199 198 194 187 188 191 192 187 192 194 193 198 202
232 192 105 67 272 279 267 259 283 343 340 321 310 289 311 332 324 344 328 315 308 306 307 303 306 308 309 304 284 272 266 281 293 301 308 318 324 315 328 332 334 328 339 342 347 347 350 340 342 345 346 346 351 343 338 335 335 332 329 324 325 322 322 320 316 312 306 302 284 250 219 209 204 199 197 192 191 191 189 186 187 192 191 193 200 203
235 202 168 186 290 43 286 356 358 308 306 305 314 304 310 325 321 317 307 302 300 301 296 289 288 292 295 299 287 272 269 271 274 280 294 306 318 315 309 314 311 323 338 335 335 340 344 346 343 344 345 343 347 343 336 334 333 329 327 329 326 323 321 318 314 310 308 308 294 253 220 208 202 197 195 194 192 191 187 189 190 193 192 194 200 202
294 178 161 217 161 189 247 291 307 317 305 304 290 341 331 322 313 310 301 295 291 288 284 282 284 284 291 293 295 288 275 260 259 272 279 285 295 311 302 291 301 312 331 304 325 343 339 342 342 338 340 340 339 337 335 336 336 335 334 332 330 325 322 318 314 309 306 306 302 264 224 212 201 193 190 191 190 188 190 192 193 193 196 198 199 201
157 131 235 170 230 263 288 292 313 322 307 295 348 319 301 303 308 306 305 303 299 293 292 291 282 282 284 284 289 289 275 253 252 260 263 274 283 309 302 281 289 298 308 335 344 346 341 337 337 337 335 335 332 335 336 338 337 340 342 338 331 329 323 315 315 310 303 304 307 276 231 214 202 195 191 190 192 194 191 189 191 196 203 204 197 200
113 227 182 86 301 277 241 258 18 330 306 295 299 300 307 305 303 300 299 295 295 298 301 300 297 290 282 277 280 285 285 277 260 249 266 265 262 275 298 285 286 289 307 318 332 337 332 333 331 332 335 329 328 335 342 342 342 346 348 341 334 330 321 318 313 308 305 312 312 297 242 219 208 198 193 190 189 188 166 16 48 201 201 200 205 205
170 199 144 184 180 238 238 226 194 238 265 262 276 289 294 299 301 300 297 301 302 295 291 291 293 295 289 283 273 272 277 270 259 253 247 253 259 259 276 279 289 295 306 322 340 337 332 325 332 329 335 333 329 335 343 346 346 350 350 346 336 328 318 315 310 308 315 317 318 312 273 225 211 202 197 194 188 184 170 160 79 26 14 214 200 203